COSMOS 1823 DEB, 39819

Orbit data source: Space-Track

COSMOS 1823 DEB, 39819 is space debris in LEO originally from a launch on Fri, 20 Feb 1987 UTC launched from the Plesetsk Missile And Space Complex (PKMTR). Debris objects in space refer to the collection of defunct objects orbiting the Earth. Examples of debris include non-operational satellites, rocket bodies, and fragments generated from explosions, collisions, or faulty payload assembly.

Loading next visibility...
Identifier
39819, 1987-020ET
Orbit
LEO
Country
Flag of CISCIS
Related business
Manufacturer
Unknown
Mission
Spacecraft
Bus & Motor
Unknown
Mass
Unknown
Launch date (UTC)
1987-02-20 (39 years ago)
Launch vehicle
Unknown
Launch site
Plesetsk Missile And Space Complex (PKMTR)
Object type
Payload
Rocket body
Debris
Shape & HBR
Unknown shape, 0.1 m
Radar Cross Section
Small (<0.1 m²)

Expand to show TLE details & history
Last TLE update: 1 month ago

TLE from 1 month ago
0 COSMOS 1823 DEB
1 39819U 87020ET  26143.21788380  .00000022  00000-0  28230-3 0  9992
2 39819  73.6712 112.5904 0025641 120.6599 239.6979 12.43286126543855
Epoch: 2026-05-23T05:13Z
TLE epoch observation values (Epoch: 2026-05-23T05:13:45.160Z)
Latitude
0.00005°
Longitude
153.3147°
Altitude
1,505.279 km
Speed
7.108 km/s
True Right ascension
07h 30m 21s
True Declination
0° 00' 00"
Sunlit
Object was in daylight at epoch
Visualization orbit readout
Latitude
Unknown
Longitude
Unknown
Altitude
Unknown
Speed
Unknown
Apparent Right ascension
Unknown
Apparent Declination
Unknown
Sunlit
N/A
Visualization observer readout
Local Sidereal Time
08:11:41
Azimuth
Unknown
Elevation
Unknown
Doppler factor
Unknown
Orbital elements
Apogee altitude
1,510.751 km
Perigee altitude
1,470.398 km
Semi-major axis
7,868.712 km
Eccentricity
0.00256
Inclination
73.6712°
RAAN
112.5904°
Arg. of periapsis
120.6599°
True anomaly
239.44463°
Mean anomaly
239.6979°
Eccentric anomaly
239.57122°
Mean motion
3.10948 °/min
Orbital period
115.77 mins
BSTAR
0.0002823
Loading maneuver chart data...
Computing Atmospheric mass density...

Documentation

Showing up to 5 results
|